| time (UTC) | temp F | wind direction | speed knots | gust knots | rain 1hr in | rain 24hr in | rain mn in | humidity % | barometer mb |
| 20260504050305 | 52 | 133 | 0.0 | 3.5 | 0.00 | 0.00 | 0.00 | 43 | 1016.2 |
| 20260504045803 | 52 | 192 | 1.7 | 3.5 | 0.00 | 0.00 | 0.00 | 41 | 1016.3 |
| 20260504045304 | 52 | 160 | 1.7 | 2.6 | 0.00 | 0.00 | 0.00 | 42 | 1016.5 |
| 20260504044800 | 51 | 191 | 1.7 | 2.6 | 0.00 | 0.00 | 0.00 | 42 | 1016.3 |
| 20260504044257 | 51 | 122 | 1.7 | 3.5 | 0.00 | 0.00 | 0.00 | 43 | 1016.4 |
| 20260504043754 | 52 | 199 | 1.7 | 3.5 | 0.00 | 0.00 | 0.00 | 42 | 1016.4 |
| 20260504043251 | 51 | 187 | 0.0 | 1.7 | 0.00 | 0.00 | 0.00 | 43 | 1016.4 |
| 20260504042749 | 51 | 197 | 0.9 | 1.7 | 0.00 | 0.00 | 0.00 | 43 | 1016.3 |
| 20260504042245 | 51 | 194 | 0.0 | 2.6 | 0.00 | 0.00 | 0.00 | 43 | 1016.1 |
| 20260504041741 | 51 | 187 | 0.0 | 3.5 | 0.00 | 0.00 | 0.00 | 44 | 1016.2 |
| 20260504041237 | 51 | 186 | 1.7 | 1.7 | 0.00 | 0.00 | 0.00 | 42 | 1016.2 |
| 20260504040734 | 52 | 192 | 1.7 | 2.6 | 0.00 | 0.00 | 0.00 | 41 | 1016.1 |
| 20260504040231 | 52 | 193 | 1.7 | 2.6 | 0.00 | 0.00 | 0.00 | 42 | 1016.4 |
| 20260504035727 | 52 | 147 | 0.9 | 2.6 | 0.00 | 0.00 | 0.00 | 43 | 1016.1 |
| 20260504035225 | 52 | 191 | 0.9 | 2.6 | 0.00 | 0.00 | 0.00 | 43 | 1016.3 |
| 20260504034722 | 52 | 196 | 0.0 | 2.6 | 0.00 | 0.00 | 0.00 | 43 | 1016.1 |
| 20260504034219 | 52 | 187 | 0.0 | 1.7 | 0.00 | 0.00 | 0.00 | 42 | 1016.1 |
| 20260504033717 | 52 | 198 | 1.7 | 3.5 | 0.00 | 0.00 | 0.00 | 42 | 1016.0 |
| 20260504033214 | 52 | 219 | 0.9 | 1.7 | 0.00 | 0.00 | 0.00 | 42 | 1015.9 |
| 20260504032711 | 52 | 223 | 2.6 | 4.3 | 0.00 | 0.00 | 0.00 | 41 | 1016.3 |
| 20260504032208 | 53 | 199 | 0.9 | 3.5 | 0.00 | 0.00 | 0.00 | 40 | 1016.2 |
| 20260504031705 | 53 | 223 | 2.6 | 4.3 | 0.00 | 0.00 | 0.00 | 40 | 1016.1 |
| 20260504031201 | 53 | 214 | 2.6 | 4.3 | 0.00 | 0.00 | 0.00 | 40 | 1016.0 |
| 20260504030658 | 53 | 249 | 2.6 | 4.3 | 0.00 | 0.00 | 0.00 | 40 | 1016.1 |
| 20260504030155 | 53 | 242 | 2.6 | 3.5 | 0.00 | 0.00 | 0.00 | 38 | 1016.0 |
| 20260504025651 | 53 | 240 | 2.6 | 3.5 | 0.00 | 0.00 | 0.00 | 38 | 1015.9 |
| 20260504025148 | 53 | 229 | 1.7 | 3.5 | 0.00 | 0.00 | 0.00 | 39 | 1015.9 |
| 20260504024645 | 54 | 237 | 1.7 | 3.5 | 0.00 | 0.00 | 0.00 | 39 | 1015.8 |
| 20260504024142 | 53 | 227 | 1.7 | 2.6 | 0.00 | 0.00 | 0.00 | 39 | 1015.9 |
| 20260504023639 | 53 | 218 | 1.7 | 3.5 | 0.00 | 0.00 | 0.00 | 40 | 1015.9 |
| 20260504023135 | 53 | 230 | 2.6 | 4.3 | 0.00 | 0.00 | 0.00 | 39 | 1015.7 |
| 20260504022631 | 53 | 220 | 2.6 | 3.5 | 0.00 | 0.00 | 0.00 | 39 | 1015.8 |
| 20260504022127 | 53 | 252 | 1.7 | 3.5 | 0.00 | 0.00 | 0.00 | 39 | 1015.9 |
| 20260504021625 | 53 | 221 | 1.7 | 2.6 | 0.00 | 0.00 | 0.00 | 39 | 1015.9 |
| 20260504021121 | 53 | 240 | 0.0 | 2.6 | 0.00 | 0.00 | 0.00 | 39 | 1015.7 |
| 20260504020619 | 53 | 219 | 2.6 | 3.5 | 0.00 | 0.00 | 0.00 | 40 | 1015.8 |
| 20260504020115 | 53 | 223 | 1.7 | 2.6 | 0.00 | 0.00 | 0.00 | 40 | 1015.6 |
| 20260504015611 | 53 | 228 | 0.0 | 2.6 | 0.00 | 0.00 | 0.00 | 40 | 1015.8 |
| 20260504015107 | 53 | 212 | 0.0 | 1.7 | 0.00 | 0.00 | 0.00 | 41 | 1015.7 |
| 20260504014604 | 53 | 147 | 0.0 | 1.7 | 0.00 | 0.00 | 0.00 | 39 | 1015.7 |
| 20260504014101 | 54 | 215 | 0.0 | 2.6 | 0.00 | 0.00 | 0.00 | 39 | 1015.6 |
| 20260504013558 | 53 | 219 | 2.6 | 3.5 | 0.00 | 0.00 | 0.00 | 39 | 1015.6 |
| 20260504013055 | 53 | 219 | 0.9 | 1.7 | 0.00 | 0.00 | 0.00 | 39 | 1015.8 |
| 20260504012553 | 54 | 199 | 0.9 | 1.7 | 0.00 | 0.00 | 0.00 | 38 | 1015.6 |
| 20260504012050 | 54 | 202 | 0.0 | 1.7 | 0.00 | 0.00 | 0.00 | 38 | 1015.5 |
| 20260504011547 | 54 | 219 | 0.9 | 2.6 | 0.00 | 0.00 | 0.00 | 38 | 1015.6 |
| 20260504011043 | 54 | 213 | 0.9 | 2.6 | 0.00 | 0.00 | 0.00 | 39 | 1015.3 |
| 20260504010539 | 54 | 224 | 2.6 | 2.6 | 0.00 | 0.00 | 0.00 | 39 | 1015.5 |
| 20260504010035 | 54 | 228 | 0.9 | 2.6 | 0.00 | 0.00 | 0.00 | 39 | 1015.5 |
| 20260504005532 | 54 | 204 | 0.9 | 3.5 | 0.00 | 0.00 | 0.00 | 39 | 1015.4 |
| 20260504005030 | 54 | 218 | 1.7 | 2.6 | 0.00 | 0.00 | 0.00 | 39 | 1015.5 |
| 20260504004527 | 54 | 239 | 2.6 | 3.5 | 0.00 | 0.00 | 0.00 | 38 | 1015.4 |
| 20260504004024 | 54 | 248 | 1.7 | 2.6 | 0.00 | 0.00 | 0.00 | 38 | 1015.2 |
| 20260504003520 | 55 | 216 | 1.7 | 3.5 | 0.00 | 0.00 | 0.00 | 38 | 1015.4 |
| 20260504003017 | 54 | 219 | 1.7 | 3.5 | 0.00 | 0.00 | 0.00 | 38 | 1015.3 |
| 20260504002514 | 54 | 229 | 2.6 | 2.6 | 0.00 | 0.00 | 0.00 | 39 | 1015.5 |
| 20260504002011 | 55 | 271 | 1.7 | 3.5 | 0.00 | 0.00 | 0.00 | 39 | 1015.3 |
| 20260504001509 | 55 | 206 | 1.7 | 2.6 | 0.00 | 0.00 | 0.00 | 39 | 1015.3 |
| 20260504001005 | 55 | 225 | 1.7 | 2.6 | 0.00 | 0.00 | 0.00 | 38 | 1015.2 |
| 20260504000502 | 55 | 212 | 2.6 | 3.5 | 0.00 | 0.00 | 0.00 | 38 | 1015.1 |
| 20260503235959 | 55 | 220 | 1.7 | 2.6 | 0.00 | 0.00 | 0.00 | 38 | 1015.3 |
| 20260503235457 | 55 | 220 | 1.7 | 1.7 | 0.00 | 0.00 | 0.00 | 38 | 1015.0 |
| 20260503234954 | 56 | 228 | 1.7 | 2.6 | 0.00 | 0.00 | 0.00 | 37 | 1015.4 |
| 20260503234452 | 56 | 244 | 2.6 | 3.5 | 0.00 | 0.00 | 0.00 | 37 | 1015.1 |
| 20260503233950 | 57 | 235 | 2.6 | 4.3 | 0.00 | 0.00 | 0.00 | 37 | 1015.2 |
| 20260503233446 | 57 | 252 | 2.6 | 4.3 | 0.00 | 0.00 | 0.00 | 36 | 1014.9 |
| 20260503232942 | 57 | 269 | 0.0 | 3.5 | 0.00 | 0.00 | 0.00 | 35 | 1014.9 |
| 20260503232439 | 57 | 279 | 1.7 | 2.6 | 0.00 | 0.00 | 0.00 | 37 | 1014.7 |
| 20260503231937 | 58 | 259 | 2.6 | 4.3 | 0.00 | 0.00 | 0.00 | 36 | 1014.9 |
| 20260503231434 | 58 | 244 | 2.6 | 4.3 | 0.00 | 0.00 | 0.00 | 36 | 1014.9 |
| 20260503230931 | 58 | 218 | 1.7 | 5.2 | 0.00 | 0.00 | 0.00 | 35 | 1014.8 |
| 20260503230427 | 58 | 240 | 4.3 | 6.1 | 0.00 | 0.00 | 0.00 | 35 | 1014.8 |
| 20260503225925 | 58 | 234 | 4.3 | 6.1 | 0.00 | 0.00 | 0.00 | 37 | 1014.7 |
| 20260503225422 | 59 | 241 | 2.6 | 5.2 | 0.00 | 0.00 | 0.00 | 36 | 1014.6 |
| 20260503224917 | 59 | 282 | 1.7 | 5.2 | 0.00 | 0.00 | 0.00 | 34 | 1014.8 |
| 20260503224414 | 59 | 227 | 3.5 | 6.1 | 0.00 | 0.00 | 0.00 | 34 | 1014.8 |
| 20260503223912 | 59 | 244 | 4.3 | 4.3 | 0.00 | 0.00 | 0.00 | 32 | 1014.6 |
| 20260503223410 | 59 | 240 | 1.7 | 6.1 | 0.00 | 0.00 | 0.00 | 33 | 1014.7 |
| 20260503222910 | 59 | 252 | 5.2 | 7.8 | 0.00 | 0.00 | 0.00 | 32 | 1014.8 |
| 20260503222409 | 59 | 258 | 5.2 | 6.1 | 0.00 | 0.00 | 0.00 | 34 | 1014.8 |
| 20260503221907 | 60 | 253 | 3.5 | 5.2 | 0.00 | 0.00 | 0.00 | 33 | 1014.6 |
| 20260503221405 | 59 | 269 | 3.5 | 6.1 | 0.00 | 0.00 | 0.00 | 33 | 1014.7 |
| 20260503220901 | 59 | 266 | 4.3 | 5.2 | 0.00 | 0.00 | 0.00 | 33 | 1014.8 |
| 20260503220358 | 59 | 253 | 3.5 | 7.8 | 0.00 | 0.00 | 0.00 | 31 | 1015.0 |
| 20260503215855 | 60 | 261 | 4.3 | 9.6 | 0.00 | 0.00 | 0.00 | 34 | 1014.9 |
| 20260503215352 | 60 | 223 | 3.5 | 4.3 | 0.00 | 0.00 | 0.00 | 31 | 1014.9 |
| 20260503214849 | 60 | 323 | 2.6 | 5.2 | 0.00 | 0.00 | 0.00 | 31 | 1014.7 |
| 20260503214347 | 60 | 221 | 3.5 | 4.3 | 0.00 | 0.00 | 0.00 | 34 | 1014.9 |
| 20260503213844 | 60 | 352 | 2.6 | 7.8 | 0.00 | 0.00 | 0.00 | 34 | 1014.9 |
| 20260503213341 | 60 | 243 | 6.1 | 7.8 | 0.00 | 0.00 | 0.00 | 32 | 1014.7 |
| 20260503212838 | 60 | 254 | 2.6 | 6.1 | 0.00 | 0.00 | 0.00 | 32 | 1015.0 |
| 20260503212336 | 61 | 224 | 2.6 | 4.3 | 0.00 | 0.00 | 0.00 | 34 | 1014.9 |
| 20260503211833 | 60 | 241 | 2.6 | 7.8 | 0.00 | 0.00 | 0.00 | 34 | 1015.0 |
| 20260503211330 | 59 | 293 | 1.7 | 6.1 | 0.00 | 0.00 | 0.00 | 32 | 1015.0 |
| 20260503210825 | 59 | 245 | 3.5 | 6.1 | 0.00 | 0.00 | 0.00 | 34 | 1015.0 |
| 20260503210322 | 60 | 298 | 5.2 | 12.2 | 0.00 | 0.00 | 0.00 | 33 | 1015.0 |
| 20260503205817 | 59 | 358 | 2.6 | 6.1 | 0.00 | 0.00 | 0.00 | 35 | 1014.8 |
| 20260503205314 | 61 | 67 | 1.7 | 6.1 | 0.00 | 0.00 | 0.00 | 35 | 1014.7 |
| 20260503204811 | 61 | 228 | 5.2 | 6.1 | 0.00 | 0.00 | 0.00 | 33 | 1015.0 |
| 20260503204309 | 60 | 255 | 4.3 | 6.1 | 0.00 | 0.00 | 0.00 | 31 | 1015.1 |
| 20260503203806 | 60 | 278 | 3.5 | 7.8 | 0.00 | 0.00 | 0.00 | 30 | 1014.9 |
| 20260503203303 | 60 | 247 | 3.5 | 8.7 | 0.00 | 0.00 | 0.00 | 32 | 1015.3 |
| 20260503202800 | 60 | 325 | 4.3 | 6.1 | 0.00 | 0.00 | 0.00 | 34 | 1015.0 |
| 20260503202258 | 60 | 261 | 5.2 | 9.6 | 0.00 | 0.00 | 0.00 | 32 | 1015.2 |
| 20260503201755 | 60 | 251 | 5.2 | 9.6 | 0.00 | 0.00 | 0.00 | 34 | 1015.0 |
| 20260503201252 | 61 | 265 | 3.5 | 6.1 | 0.00 | 0.00 | 0.00 | 31 | 1015.0 |
| 20260503200749 | 60 | 263 | 2.6 | 9.6 | 0.00 | 0.00 | 0.00 | 31 | 1015.1 |
| 20260503200245 | 58 | 292 | 2.6 | 7.8 | 0.00 | 0.00 | 0.00 | 34 | 1015.2 |
| 20260503195743 | 57 | 214 | 2.6 | 7.0 | 0.00 | 0.00 | 0.00 | 34 | 1015.4 |
| 20260503195239 | 58 | 244 | 4.3 | 7.8 | 0.00 | 0.00 | 0.00 | 32 | 1015.4 |
| 20260503194737 | 60 | 212 | 3.5 | 7.8 | 0.00 | 0.00 | 0.00 | 33 | 1015.6 |
| 20260503194232 | 59 | 242 | 2.6 | 5.2 | 0.00 | 0.00 | 0.00 | 32 | 1015.6 |
| 20260503193729 | 59 | 271 | 2.6 | 6.1 | 0.00 | 0.00 | 0.00 | 33 | 1015.4 |
| 20260503193225 | 61 | 271 | 6.1 | 7.8 | 0.00 | 0.00 | 0.00 | 31 | 1015.6 |
| 20260503192721 | 60 | 306 | 2.6 | 7.0 | 0.00 | 0.00 | 0.00 | 32 | 1015.6 |
| 20260503192216 | 60 | 255 | 4.3 | 5.2 | 0.00 | 0.00 | 0.00 | 33 | 1015.8 |
| 20260503191713 | 59 | 239 | 4.3 | 6.1 | 0.00 | 0.00 | 0.00 | 33 | 1015.9 |
| 20260503191210 | 59 | 250 | 6.1 | 9.6 | 0.00 | 0.00 | 0.00 | 33 | 1015.9 |
| 20260503190707 | 60 | 218 | 1.7 | 7.0 | 0.00 | 0.00 | 0.00 | 31 | 1015.9 |
| 20260503190204 | 60 | 288 | 6.1 | 11.3 | 0.00 | 0.00 | 0.00 | 30 | 1016.0 |
| 20260503185701 | 60 | 280 | 3.5 | 7.8 | 0.00 | 0.00 | 0.00 | 32 | 1015.9 |
| 20260503185156 | 59 | 233 | 7.8 | 13.9 | 0.00 | 0.00 | 0.00 | 33 | 1016.1 |
| 20260503184651 | 59 | 286 | 2.6 | 7.8 | 0.00 | 0.00 | 0.00 | 30 | 1015.8 |
| 20260503184148 | 57 | 215 | 4.3 | 8.7 | 0.00 | 0.00 | 0.00 | 31 | 1016.2 |
| 20260503183644 | 59 | 277 | 3.5 | 8.7 | 0.00 | 0.00 | 0.00 | 31 | 1016.2 |
| 20260503183142 | 59 | 258 | 3.5 | 8.7 | 0.00 | 0.00 | 0.00 | 29 | 1016.3 |
| 20260503182640 | 59 | 285 | 5.2 | 7.8 | 0.00 | 0.00 | 0.00 | 32 | 1016.3 |
| 20260503182139 | 59 | 283 | 3.5 | 6.1 | 0.00 | 0.00 | 0.00 | 35 | 1016.4 |
| 20260503181635 | 59 | 247 | 4.3 | 9.6 | 0.00 | 0.00 | 0.00 | 32 | 1016.4 |
| 20260503181131 | 58 | 278 | 4.3 | 7.0 | 0.00 | 0.00 | 0.00 | 33 | 1016.4 |
| 20260503180628 | 58 | 255 | 5.2 | 7.8 | 0.00 | 0.00 | 0.00 | 32 | 1016.4 |
| 20260503180126 | 57 | 313 | 4.3 | 14.8 | 0.00 | 0.00 | 0.00 | 34 | 1016.5 |
| 20260503175623 | 56 | 219 | 6.1 | 8.7 | 0.00 | 0.00 | 0.00 | 35 | 1016.4 |
| 20260503175120 | 57 | 268 | 5.2 | 7.0 | 0.00 | 0.00 | 0.00 | 35 | 1016.5 |
| 20260503174616 | 57 | 236 | 6.1 | 7.8 | 0.00 | 0.00 | 0.00 | 35 | 1016.4 |
| 20260503174114 | 57 | 253 | 3.5 | 4.3 | 0.00 | 0.00 | 0.00 | 35 | 1016.7 |
| 20260503173608 | 57 | 255 | 6.1 | 12.2 | 0.00 | 0.00 | 0.00 | 37 | 1016.9 |
| 20260503173105 | 56 | 241 | 7.0 | 11.3 | 0.00 | 0.00 | 0.00 | 35 | 1016.8 |
| 20260503172602 | 55 | 279 | 5.2 | 8.7 | 0.00 | 0.00 | 0.00 | 38 | 1016.8 |
| 20260503172100 | 56 | 291 | 3.5 | 11.3 | 0.00 | 0.00 | 0.00 | 37 | 1016.6 |
| 20260503171555 | 55 | 254 | 6.1 | 7.8 | 0.00 | 0.00 | 0.00 | 38 | 1016.7 |
| 20260503171053 | 56 | 248 | 3.5 | 7.8 | 0.00 | 0.00 | 0.00 | 39 | 1017.0 |
| 20260503170549 | 55 | 239 | 4.3 | 9.6 | 0.00 | 0.00 | 0.00 | 37 | 1017.0 |
| 20260503150942 | 50 | 323 | 4.3 | 7.0 | 0.00 | 0.00 | 0.00 | 49 | 1018.0 |
| 20260503150439 | 48 | 276 | 7.0 | 8.7 | 0.00 | 0.00 | 0.00 | 49 | 1018.0 |
| 20260503131331 | 44 | 259 | 6.1 | 6.1 | 0.00 | 0.00 | 0.00 | 62 | 1018.1 |
| 20260503130829 | 43 | 235 | 2.6 | 7.0 | 0.00 | 0.00 | 0.00 | 65 | 1018.0 |
| 20260503130327 | 43 | 249 | 4.3 | 5.2 | 0.00 | 0.00 | 0.00 | 64 | 1018.2 |
| 20260503110720 | 36 | 247 | 3.5 | 5.2 | 0.00 | 0.00 | 0.00 | 79 | 1017.2 |
| 20260503110217 | 36 | 245 | 2.6 | 5.2 | 0.00 | 0.00 | 0.00 | 79 | 1017.5 |
| 20260503100144 | 36 | 257 | 4.3 | 6.1 | 0.00 | 0.00 | 0.00 | 81 | 1016.4 |
| 20260503081538 | 38 | 248 | 4.3 | 5.2 | 0.00 | 0.00 | 0.00 | 79 | 1015.8 |
| 20260503081036 | 39 | 253 | 3.5 | 6.1 | 0.00 | 0.00 | 0.00 | 78 | 1015.8 |
| 20260503080532 | 39 | 260 | 3.5 | 5.2 | 0.00 | 0.00 | 0.00 | 78 | 1015.9 |
| 20260503072506 | 41 | 245 | 4.3 | 6.1 | 0.00 | 0.00 | 0.00 | 74 | 1015.4 |
| 20260503072003 | 41 | 252 | 3.5 | 6.1 | 0.00 | 0.00 | 0.00 | 75 | 1015.3 |
| 20260503071500 | 41 | 237 | 3.5 | 6.1 | 0.00 | 0.00 | 0.00 | 73 | 1015.0 |
| 20260503070955 | 41 | 249 | 4.3 | 7.0 | 0.00 | 0.00 | 0.00 | 74 | 1014.9 |
| 20260503070453 | 41 | 249 | 6.1 | 6.1 | 0.00 | 0.00 | 0.00 | 73 | 1015.1 |